Weather History for Stanton, MN

Change the Weather History Date:

Saturday, December 7, 2013

  Actual Average (KLVN) Record (KLVN)
Temperature  
Mean Temperature -2 °F -  
Max Temperature 4 °F 28 °F 45 °F (1991)
Min Temperature -7 °F 12 °F -25 °F (1972)
Degree Days  
Heating Degree Days 66    
Moisture  
Dew Point -10 °F    
Average Humidity 68    
Maximum Humidity 74    
Minimum Humidity 57    
Precipitation  
Precipitation 0.00 in - - ()
Sea Level Pressure  
Sea Level Pressure 30.63 in    
Wind  
Wind Speed 5 mph (West)    
Max Wind Speed 9 mph    
Max Gust Speed -    
Visibility 10 miles    
Events      
Averages and records for this station are not official NWS values.
T = Trace of Precipitation, MM = Missing Value Source: NWS Daily Summary

Daily Weather History Graph

Daily Weather History Graph

Search for Another Location

Airport:

Trip Planner

Search our weather history database for the weather conditions in past years. The results will help you decide how hot, cold, wet, or windy it might be!

Date:

Astronomy

Dec. 07, 2013 Rise Set
Actual Time 7:34 AM CST 4:32 PM CST
Civil Twilight 7:01 AM CST 5:05 PM CST
Nautical Twilight 6:25 AM CST 5:42 PM CST
Astronomical Twilight 5:49 AM CST 6:17 PM CST
Moon 11:12 AM CST (12/7) 10:24 PM CST (12/7)
Length of Visible Light 10h 03m
Length of Day
8h 57m
Waxing Crescent, 29% of the Moon is Illuminated
Dec 7
Waxing Crescent
Dec 9
First Quarter
Dec 17
Full
Dec 25
Last Quarter
Jan 1
New

Hourly Weather History & Observations

Time (CST) Temp. Windchill Dew Point Humidity Pressure Visibility Wind Dir Wind Speed Gust Speed Precip Events Conditions
12:12 AM -4.2 °F -18.0 °F -11.6 °F 71% 30.62 in 10.0 mi West 6.9 mph - N/A   Clear
12:32 AM -4.5 °F -18.4 °F -11.7 °F 71% 30.62 in 10.0 mi West 6.9 mph - N/A   Clear
12:52 AM -4.7 °F -18.6 °F -11.7 °F 72% 30.62 in 10.0 mi West 6.9 mph - N/A   Clear
1:12 AM -4.9 °F -17.4 °F -11.7 °F 72% 30.63 in 10.0 mi West 5.8 mph - N/A   Clear
1:32 AM -4.9 °F -20.1 °F -11.6 °F 73% 30.63 in 10.0 mi West 8.1 mph - N/A   Clear
1:52 AM -5.1 °F -17.6 °F -11.7 °F 73% 30.63 in 10.0 mi West 5.8 mph - N/A   Clear
2:12 AM -5.1 °F -15.8 °F -11.7 °F 73% 30.63 in 10.0 mi West 4.6 mph - N/A   Clear
2:32 AM -5.4 °F -16.2 °F -11.9 °F 74% 30.63 in 10.0 mi West 4.6 mph - N/A   Clear
2:52 AM -5.4 °F -14.1 °F -12.1 °F 73% 30.64 in 10.0 mi West 3.5 mph - N/A   Clear
3:12 AM -5.6 °F -18.2 °F -12.1 °F 74% 30.64 in 10.0 mi West 5.8 mph - N/A   Clear
3:32 AM -5.3 °F -17.8 °F -12.1 °F 72% 30.65 in 10.0 mi WSW 5.8 mph - N/A   Clear
3:52 AM -5.3 °F -17.8 °F -11.7 °F 74% 30.65 in 10.0 mi WSW 5.8 mph - N/A   Clear
4:12 AM -5.4 °F -16.2 °F -12.1 °F 73% 30.65 in 10.0 mi WSW 4.6 mph - N/A   Clear
4:32 AM -5.8 °F -19.9 °F -12.1 °F 74% 30.65 in 10.0 mi West 6.9 mph - N/A   Clear
4:52 AM -5.8 °F -18.4 °F -12.1 °F 74% 30.67 in 10.0 mi WSW 5.8 mph - N/A   Clear
5:12 AM -6.2 °F -20.4 °F -12.5 °F 74% 30.66 in 10.0 mi West 6.9 mph - N/A   Clear
5:33 AM -6.3 °F -19.1 °F -13.0 °F 73% 30.65 in 10.0 mi West 5.8 mph - N/A   Clear
5:52 AM -6.7 °F -19.5 °F -13.0 °F 74% 30.66 in 10.0 mi WSW 5.8 mph - N/A   Clear
6:12 AM -6.7 °F -15.5 °F -13.0 °F 74% 30.67 in 10.0 mi West 3.5 mph - N/A   Clear
6:32 AM -6.9 °F -19.7 °F -13.2 °F 74% 30.67 in 10.0 mi WSW 5.8 mph - N/A   Clear
6:52 AM -6.9 °F -19.7 °F -13.2 °F 74% 30.67 in 10.0 mi West 5.8 mph - N/A   Clear
7:12 AM -7.1 °F -15.9 °F -13.5 °F 73% 30.67 in 10.0 mi West 3.5 mph - N/A   Clear
7:32 AM -7.2 °F -16.1 °F -13.9 °F 73% 30.67 in 10.0 mi West 3.5 mph - N/A   Clear
7:52 AM -7.1 °F -15.9 °F -13.5 °F 73% 30.67 in 10.0 mi WSW 3.5 mph - N/A   Clear
8:12 AM -6.7 °F -17.7 °F -13.0 °F 74% 30.67 in 10.0 mi SSW 4.6 mph - N/A   Clear
8:32 AM -6.0 °F -16.9 °F -13.0 °F 72% 30.68 in 10.0 mi WSW 4.6 mph - N/A   Clear
8:52 AM -5.8 °F -16.7 °F -12.8 °F 72% 30.69 in 10.0 mi WSW 4.6 mph - N/A   Clear
9:13 AM -4.4 °F -18.2 °F -12.1 °F 69% 30.70 in 10.0 mi WSW 6.9 mph - N/A   Clear
9:32 AM -3.5 °F -15.7 °F -11.6 °F 68% 30.70 in 10.0 mi WSW 5.8 mph - N/A   Clear
9:52 AM -2.6 °F -14.6 °F -10.7 °F 68% 30.70 in 10.0 mi WSW 5.8 mph - N/A   Clear
10:12 AM -2.2 °F -15.6 °F -11.2 °F 66% 30.69 in 10.0 mi WSW 6.9 mph - N/A   Clear
10:32 AM -1.1 °F -15.5 °F -9.8 °F 67% 30.70 in 10.0 mi West 8.1 mph - N/A   Clear
10:52 AM -0.4 °F -12.0 °F -9.6 °F 65% 30.69 in 10.0 mi West 5.8 mph - N/A   Clear
11:12 AM 0.1 °F -9.7 °F -9.2 °F 65% 30.69 in 10.0 mi West 4.6 mph - N/A   Clear
11:32 AM 1.0 °F -11.7 °F -9.0 °F 63% 30.68 in 10.0 mi WSW 6.9 mph - N/A   Clear
11:52 AM 1.8 °F -9.5 °F -8.1 °F 63% 30.68 in 10.0 mi SW 5.8 mph - N/A   Clear
12:12 PM 2.8 °F -11.7 °F -7.2 °F 63% 30.67 in 10.0 mi WSW 9.2 mph - N/A   Clear
12:32 PM 3.6 °F -7.3 °F -7.2 °F 61% 30.65 in 10.0 mi West 5.8 mph - N/A   Clear
12:52 PM 3.7 °F -8.4 °F -7.4 °F 60% 30.65 in 10.0 mi WSW 6.9 mph - N/A   Clear
1:12 PM 4.1 °F -10.2 °F -7.2 °F 59% 30.64 in 10.0 mi West 9.2 mph - N/A   Clear
1:32 PM 4.5 °F -8.7 °F -6.7 °F 60% 30.64 in 10.0 mi West 8.1 mph - N/A   Clear
1:52 PM 4.3 °F -10.0 °F -7.6 °F 58% 30.63 in 10.0 mi WNW 9.2 mph - N/A   Clear
2:12 PM 4.5 °F -7.6 °F -7.1 °F 59% 30.63 in 10.0 mi West 6.9 mph - N/A   Clear
2:32 PM 4.6 °F -6.0 °F -7.6 °F 57% 30.63 in 10.0 mi WNW 5.8 mph - N/A   Clear
2:52 PM 4.6 °F -7.4 °F -6.9 °F 59% 30.63 in 10.0 mi West 6.9 mph - N/A   Clear
3:12 PM 4.6 °F -7.4 °F -7.6 °F 57% 30.62 in 10.0 mi West 6.9 mph - N/A   Clear
3:32 PM 4.1 °F -6.7 °F -7.4 °F 59% 30.61 in 10.0 mi West 5.8 mph - N/A   Clear
3:52 PM 3.9 °F -5.3 °F -7.8 °F 58% 30.61 in 10.0 mi West 4.6 mph - N/A   Clear
4:12 PM 3.2 °F -7.8 °F -7.8 °F 60% 30.62 in 10.0 mi West 5.8 mph - N/A   Clear
4:32 PM 3.2 °F -7.8 °F -7.6 °F 61% 30.61 in 10.0 mi West 5.8 mph - N/A   Clear
4:52 PM 2.7 °F -8.4 °F -7.6 °F 62% 30.61 in 10.0 mi West 5.8 mph - N/A   Clear
5:12 PM 2.1 °F - -6.2 °F 68% 30.60 in 10.0 mi Calm Calm - N/A   Clear
5:32 PM 1.4 °F - -6.2 °F 71% 30.59 in 10.0 mi Calm Calm - N/A   Clear
5:52 PM 0.9 °F - -7.4 °F 68% 30.58 in 10.0 mi Calm Calm - N/A   Clear
6:12 PM 1.0 °F - -7.6 °F 67% 30.58 in 10.0 mi Calm Calm - N/A   Clear
6:32 PM 0.3 °F - -6.7 °F 72% 30.57 in 10.0 mi Calm Calm - N/A   Clear
6:52 PM 0.1 °F - -6.9 °F 72% 30.57 in 10.0 mi Calm Calm - N/A   Clear
7:13 PM 0.1 °F - -7.6 °F 70% 30.58 in 10.0 mi Calm Calm - N/A   Clear
7:32 PM -0.2 °F - -8.0 °F 70% 30.58 in 10.0 mi Calm Calm - N/A   Clear
7:52 PM -0.4 °F - -7.6 °F 72% 30.58 in 10.0 mi Calm Calm - N/A   Clear
8:13 PM -0.4 °F - -8.3 °F 69% 30.57 in 10.0 mi Calm Calm - N/A   Clear
8:32 PM -0.0 °F - -8.3 °F 68% 30.57 in 10.0 mi Calm Calm - N/A   Clear
8:52 PM -0.0 °F - -7.8 °F 70% 30.56 in 10.0 mi Calm Calm - N/A   Clear
9:12 PM 0.3 °F - -7.6 °F 69% 30.56 in 10.0 mi Calm Calm - N/A   Clear
9:32 PM 0.5 °F - -7.8 °F 68% 30.55 in 10.0 mi Calm Calm - N/A   Clear
9:53 PM 0.5 °F - -7.8 °F 68% 30.56 in 10.0 mi Calm Calm - N/A   Clear
10:12 PM 0.5 °F - -7.4 °F 69% 30.55 in 10.0 mi Calm Calm - N/A   Clear
10:32 PM 1.2 °F - -6.7 °F 69% 30.55 in 10.0 mi Calm Calm - N/A   Clear
10:52 PM 1.4 °F - -6.3 °F 70% 30.55 in 10.0 mi Calm Calm - N/A   Clear
11:12 PM 1.4 °F - -5.8 °F 72% 30.55 in 10.0 mi Calm Calm - N/A   Clear
11:32 PM 1.8 °F - -4.9 °F 74% 30.55 in 10.0 mi Calm Calm - N/A   Clear
11:52 PM 2.1 °F - -5.3 °F 71% 30.54 in 10.0 mi Calm Calm - N/A   Clear